Date,TemperatureHighF,TemperatureAvgF,TemperatureLowF,DewpointHighF,DewpointAvgF,DewpointLowF,HumidityHigh,HumidityAvg,HumidityLow,PressureMaxIn,PressureMinIn,WindSpeedMaxMPH,WindSpeedAvgMPH,GustSpeedMaxMPH,PrecipitationSumIn
2013-1-1,47,44,41,40,34,30,87,68,57,0.00,40.00,7,-4,16,0.00
2013-1-2,41,36,29,33,26,20,90,69,50,0.00,40.00,12,4,17,0.00
2013-1-3,37,31,27,27,22,18,99,69,49,0.00,40.00,7,3,12,0.00
2013-1-4,45,35,25,32,25,21,99,72,40,0.00,40.00,11,4,22,0.00
2013-1-5,46,37,32,32,26,22,92,66,45,0.00,40.00,12,4,22,0.00
2013-1-6,52,42,36,43,34,28,99,77,42,0.00,40.00,8,3,12,0.00
2013-1-7,50,41,29,38,33,29,99,75,47,0.00,40.00,13,4,22,0.00
2013-1-8,56,42,28,41,34,27,99,77,39,0.00,40.00,9,-11,17,0.00
2013-1-9,63,50,36,54,46,36,100,89,61,0.00,40.00,12,3,22,0.00
2013-1-10,53,47,39,48,33,29,93,59,41,0.00,40.00,12,4,19,0.00
2013-1-11,56,46,33,55,45,33,99,96,83,0.00,40.00,11,4,18,0.01
2013-1-12,63,49,44,54,48,44,99,95,70,0.00,40.00,9,3,17,0.00
2013-1-13,59,50,42,57,50,42,99,99,99,0.00,40.00,9,-9,15,0.00
2013-1-14,65,58,46,65,58,45,99,99,92,0.00,40.00,12,6,21,0.16
2013-1-15,46,41,39,45,41,38,100,99,99,0.00,40.00,11,4,18,0.48
2013-1-16,46,41,37,45,41,37,99,99,99,0.00,40.00,12,4,19,0.37
2013-1-17,44,41,33,43,40,33,99,99,99,0.00,40.00,10,3,15,0.62
2013-1-18,38,34,27,33,25,12,99,75,37,0.00,40.00,14,5,27,0.07
2013-1-19,52,40,27,36,29,24,96,68,37,0.00,40.00,12,7,24,0.00
2013-1-20,60,49,39,35,31,17,72,51,36,0.00,40.00,15,8,27,0.00
2013-1-21,46,37,27,41,28,17,99,72,41,0.00,40.00,17,4,29,0.00
2013-1-22,32,25,19,29,7,0,94,49,36,0.00,40.00,19,9,34,0.00
2013-1-23,28,21,16,10,5,2,61,51,39,0.00,40.00,14,5,24,0.00
2013-1-24,26,20,14,20,12,4,99,75,43,0.00,40.00,14,5,24,0.09
2013-1-25,26,20,12,23,16,9,99,84,53,0.00,40.00,7,2,12,0.07
2013-1-26,35,26,19,23,19,17,99,77,49,0.00,40.00,15,5,27,0.00
2013-1-27,38,27,16,25,18,14,99,73,46,0.00,40.00,8,2,14,0.00
2013-1-28,47,37,24,46,35,24,99,92,77,0.00,40.00,11,5,21,0.00
2013-1-29,71,54,44,54,49,44,99,88,56,0.00,40.00,12,5,17,0.00
2013-1-30,66,58,51,65,58,51,99,99,96,0.00,40.00,15,8,35,0.00